Flag for U.S.A. Weather past 2 weeks in Mobile, Alabama, U.S.A.

Now
70 °F

Light rain. Partly sunny.


Feels Like: 67 °F
Forecast: 73 / 83 °F
Wind: 15 mph from Southeast

Location: Mobile Downtown Airport

Current Time: Apr 25, 2015 at 5:55:47 PM

Latest Report: Apr 25, 2015 at 4:53 PM


Visibility: 10 mi

Pressure: 29.67 "Hg

Humidity: 90%

Dew point: 67 °F

Location of MobileLocation

Historic Weather in Mobile — Graph

°F

Mobile temperature yesterday

Maximum temperature yesterday: 79 °F (at 1:53 PM)
Minimum temperature yesterday: 64 °F (at 5:53 AM)
Average temperature yesterday: 72 °F

Past Weeks' High & Low Weather Summary

 TemperatureHumidityPressure
High84 °F (Apr 23, 2:53 PM)97% (Apr 14, 5:53 AM)30.14 "Hg (Apr 14, 5:53 AM)
Low53 °F (Apr 21, 4:53 AM)31% (Apr 22, 12:53 PM)29.77 "Hg (Apr 19, 3:53 PM)
Average71 °F83%29.98 "Hg
* Reported Apr 10 4:53 PM — Apr 25 4:00 PM, Mobile, Weather by CustomWeather, © 2015

Note: Actual official high and low records may vary slightly from our data, if they occured in-between our weather recording intervals... More about our weather records

Advertising

Mobile weather history for previous 24 hours

 ConditionsComfort  
Time TempWeatherWind HumidityBarometerVisibility
4:00 PM
Sat, Apr 25
70 °FLight rain. More clouds than sun.10 mph90%29.83 "Hg10 mi
3:03 PM77 °FThunderstorms. Overcast.10 mph85%29.80 "Hg8 mi
1:53 PM82 °FScattered clouds.8 mph72%29.78 "Hg10 mi
12:53 PM84 °FScattered clouds.6 mph67%29.80 "Hg10 mi
11:53 AM84 °FPartly sunny.7 mph70%29.80 "Hg10 mi
10:53 AM84 °FPartly sunny.8 mph72%29.81 "Hg10 mi
9:53 AM82 °FMostly cloudy.8 mph77%29.80 "Hg10 mi
8:53 AM80 °FCloudy.8 mph85%29.82 "Hg10 mi
7:53 AM77 °FMostly cloudy.5 mph90%29.83 "Hg8 mi
7:01 AM77 °FMostly cloudy.6 mph90%29.84 "Hg8 mi
6:02 AM76 °FMostly cloudy.5 mph94%29.84 "Hg8 mi
5:53 AM76 °FMostly cloudy.5 mph94%29.83 "Hg8 mi
5:01 AM77 °FThunderstorms. Mostly cloudy.7 mph88%29.83 "Hg7 mi
3:53 AM76 °FMostly cloudy.No wind91%29.85 "Hg8 mi
2:53 AM75 °FMostly cloudy.9 mph94%29.81 "Hg8 mi
1:53 AM75 °FMostly cloudy.8 mph90%29.82 "Hg8 mi
12:53 AM74 °FMostly cloudy.10 mph94%29.83 "Hg9 mi
11:53 PM
Fri, Apr 24
74 °FMostly cloudy.12 mph91%29.85 "Hg10 mi
10:53 PM74 °FOvercast.7 mph91%29.87 "Hg10 mi
9:53 PM73 °FOvercast.5 mph90%29.91 "Hg10 mi
8:53 PM73 °FMostly cloudy.7 mph88%29.91 "Hg10 mi
7:53 PM73 °FSunny.10 mph84%29.90 "Hg10 mi
5:53 PM74 °FPassing clouds.6 mph76%29.96 "Hg10 mi
Weather by CustomWeather, © 2015

See weather overviewHow to use our weather pages